Location: Castifao
(42.5040°N, 9.1124°E)
Time: 21:59:49
(UTC+00:00)

DELTA 2 R/B (1) - Pass Details

Date: 23 January 2020
Orbit: 791 x 802 km, 39.6° (Epoch: 19 February)

Event Time Altitude Azimuth Distance (km) Brightness Sun altitude
Rises 16:53:18 0° 253° (WSW) 3,285 9.5 -5.6°
Reaches altitude 10° 16:55:48 10° 250° (WSW) 2,358 7.9 -6.1°
Maximum altitude 17:01:17 61° 171° (S) 900 4.0 -7.0°
Drops below altitude 10° 17:06:47 10° 92° (E) 2,368 5.5 -8.0°
Enters shadow 17:07:17 - 91° (E) 2,552 5.6 -8.1°
